| time (UTC) | temp F | wind direction | speed MPH | gust MPH | rain 1hr in | rain 24hr in | rain mn in | humidity % | barometer mb |
| 20260508043420 | 52 | 269 | 1.0 | 5.0 | 0.00 | 0.00 | 0.00 | 95 | 1019.1 |
| 20260508042433 | 52 | 270 | 1.0 | 6.0 | 0.00 | 0.00 | 0.00 | 95 | 1018.9 |
| 20260508041428 | 52 | 277 | 3.0 | 7.0 | 0.00 | 0.00 | 0.00 | 95 | 1018.8 |
| 20260508040422 | 52 | 274 | 3.0 | 7.0 | 0.00 | 0.00 | 0.00 | 95 | 1018.7 |
| 20260508035419 | 52 | 277 | 3.0 | 8.0 | 0.00 | 0.00 | 0.00 | 95 | 1018.5 |
| 20260508034453 | 53 | 277 | 4.0 | 7.0 | 0.00 | 0.00 | 0.00 | 95 | 1018.4 |
| 20260508033426 | 53 | 280 | 3.0 | 8.0 | 0.00 | 0.00 | 0.00 | 95 | 1018.5 |
| 20260508032424 | 53 | 308 | 3.0 | 8.0 | 0.00 | 0.00 | 0.00 | 95 | 1018.4 |
| 20260508031417 | 53 | 298 | 2.0 | 6.0 | 0.00 | 0.00 | 0.00 | 95 | 1018.5 |
| 20260508030431 | 53 | 268 | 3.0 | 10.0 | 0.00 | 0.00 | 0.00 | 95 | 1018.3 |
| 20260508025424 | 53 | 315 | 2.0 | 10.0 | 0.00 | 0.00 | 0.00 | 94 | 1018.3 |
| 20260508024420 | 54 | 286 | 3.0 | 9.0 | 0.00 | 0.00 | 0.00 | 94 | 1018.3 |
| 20260508023454 | 54 | 291 | 5.0 | 10.0 | 0.00 | 0.00 | 0.00 | 93 | 1018.3 |
| 20260508022427 | 55 | 286 | 3.0 | 12.0 | 0.00 | 0.00 | 0.00 | 92 | 1018.2 |
| 20260508021419 | 56 | 277 | 1.0 | 5.0 | 0.00 | 0.00 | 0.00 | 91 | 1018.3 |
| 20260508020418 | 56 | 289 | 1.0 | 7.0 | 0.00 | 0.00 | 0.00 | 91 | 1018.3 |
| 20260508015450 | 57 | 276 | 3.0 | 7.0 | 0.00 | 0.00 | 0.00 | 90 | 1018.3 |
| 20260508014423 | 57 | 271 | 4.0 | 9.0 | 0.00 | 0.00 | 0.00 | 89 | 1018.4 |
| 20260508013417 | 58 | 279 | 4.0 | 8.0 | 0.00 | 0.00 | 0.00 | 88 | 1018.4 |
| 20260508012414 | 59 | 209 | 2.0 | 8.0 | 0.00 | 0.00 | 0.00 | 89 | 1018.5 |
| 20260508011428 | 58 | 317 | 3.0 | 7.0 | 0.00 | 0.00 | 0.00 | 90 | 1018.5 |
| 20260508005442 | 59 | 274 | 2.0 | 8.0 | 0.00 | 0.00 | 0.00 | 88 | 1018.7 |
| 20260508004438 | 60 | 275 | 2.0 | 9.0 | 0.00 | 0.00 | 0.00 | 86 | 1018.8 |
| 20260508003430 | 61 | 258 | 3.0 | 9.0 | 0.00 | 0.00 | 0.00 | 86 | 1018.7 |
| 20260508002443 | 61 | 317 | 2.0 | 8.0 | 0.00 | 0.00 | 0.00 | 86 | 1018.8 |
| 20260508001416 | 60 | 291 | 3.0 | 13.0 | 0.00 | 0.00 | 0.00 | 87 | 1018.8 |
| 20260508000456 | 59 | 307 | 4.0 | 11.0 | 0.00 | 0.00 | 0.00 | 87 | 1018.8 |
| 20260507235445 | 60 | 319 | 5.0 | 11.0 | 0.00 | 0.00 | 0.00 | 87 | 1018.7 |
| 20260507234418 | 60 | 295 | 5.0 | 11.0 | 0.00 | 0.00 | 0.00 | 87 | 1018.6 |
| 20260507233433 | 60 | 315 | 4.0 | 10.0 | 0.00 | 0.00 | 0.00 | 87 | 1018.8 |
| 20260507232433 | 60 | 272 | 4.0 | 10.0 | 0.00 | 0.00 | 0.00 | 87 | 1019.0 |
| 20260507231427 | 60 | 293 | 5.0 | 13.0 | 0.00 | 0.00 | 0.00 | 87 | 1018.9 |
| 20260507230421 | 60 | 286 | 4.0 | 12.0 | 0.00 | 0.00 | 0.00 | 88 | 1018.9 |
| 20260507225418 | 60 | 284 | 7.0 | 16.0 | 0.00 | 0.00 | 0.00 | 87 | 1019.2 |
| 20260507224432 | 60 | 300 | 4.0 | 12.0 | 0.00 | 0.00 | 0.00 | 86 | 1019.1 |
| 20260507223426 | 61 | 270 | 5.0 | 13.0 | 0.00 | 0.00 | 0.00 | 86 | 1019.3 |
| 20260507222440 | 61 | 279 | 2.0 | 9.0 | 0.00 | 0.00 | 0.00 | 86 | 1019.4 |
| 20260507221417 | 61 | 248 | 6.0 | 11.0 | 0.00 | 0.00 | 0.00 | 85 | 1019.3 |
| 20260507220451 | 61 | 292 | 4.0 | 9.0 | 0.00 | 0.00 | 0.00 | 87 | 1019.4 |
| 20260507215424 | 61 | 273 | 4.0 | 11.0 | 0.00 | 0.00 | 0.00 | 87 | 1019.6 |
| 20260507214418 | 61 | 271 | 4.0 | 10.0 | 0.00 | 0.00 | 0.00 | 87 | 1019.7 |
| 20260507213436 | 61 | 303 | 4.0 | 7.0 | 0.00 | 0.00 | 0.00 | 87 | 1019.8 |
| 20260507212429 | 60 | 303 | 4.0 | 11.0 | 0.00 | 0.00 | 0.00 | 87 | 1019.9 |
| 20260507211424 | 60 | 264 | 3.0 | 12.0 | 0.00 | 0.00 | 0.00 | 87 | 1020.0 |
| 20260507210418 | 61 | 299 | 5.0 | 8.0 | 0.00 | 0.00 | 0.00 | 86 | 1020.1 |
| 20260507205416 | 61 | 293 | 3.0 | 9.0 | 0.00 | 0.00 | 0.00 | 87 | 1020.1 |
| 20260507204430 | 60 | 271 | 4.0 | 13.0 | 0.00 | 0.00 | 0.00 | 89 | 1020.2 |
| 20260507203444 | 60 | 324 | 5.0 | 11.0 | 0.00 | 0.00 | 0.00 | 88 | 1020.3 |
| 20260507202421 | 60 | 258 | 2.0 | 9.0 | 0.00 | 0.00 | 0.00 | 89 | 1020.3 |
| 20260507201415 | 60 | 300 | 2.0 | 9.0 | 0.00 | 0.00 | 0.00 | 89 | 1020.4 |
| 20260507200429 | 60 | 320 | 3.0 | 7.0 | 0.00 | 0.00 | 0.00 | 88 | 1020.4 |
| 20260507195422 | 60 | 317 | 2.0 | 5.0 | 0.00 | 0.00 | 0.00 | 89 | 1020.4 |
| 20260507194419 | 60 | 263 | 2.0 | 7.0 | 0.00 | 0.00 | 0.00 | 89 | 1020.4 |
| 20260507193433 | 61 | 315 | 4.0 | 7.0 | 0.00 | 0.00 | 0.00 | 88 | 1020.5 |
| 20260507192427 | 60 | 295 | 2.0 | 4.0 | 0.00 | 0.00 | 0.00 | 89 | 1020.5 |
| 20260507191421 | 59 | 316 | 2.0 | 7.0 | 0.00 | 0.00 | 0.00 | 90 | 1020.7 |
| 20260507190440 | 59 | 306 | 1.0 | 3.0 | 0.00 | 0.00 | 0.00 | 90 | 1020.8 |
| 20260507185431 | 58 | 291 | 0.0 | 6.0 | 0.00 | 0.00 | 0.00 | 92 | 1020.8 |
| 20260507184423 | 59 | 265 | 0.0 | 5.0 | 0.00 | 0.00 | 0.00 | 92 | 1020.9 |
| 20260507183419 | 57 | 267 | 0.0 | 5.0 | 0.00 | 0.00 | 0.00 | 92 | 1020.9 |
| 20260507182432 | 57 | 190 | 1.0 | 4.0 | 0.00 | 0.00 | 0.00 | 92 | 1021.0 |
| 20260507181424 | 57 | 294 | 1.0 | 3.0 | 0.00 | 0.00 | 0.00 | 93 | 1021.0 |
| 20260507180437 | 56 | 286 | 1.0 | 4.0 | 0.00 | 0.00 | 0.00 | 93 | 1021.1 |
| 20260507104418 | 51 | 314 | 0.0 | 6.0 | 0.00 | 0.00 | 0.00 | 96 | 1020.1 |
| 20260507103433 | 51 | 310 | 1.0 | 6.0 | 0.00 | 0.00 | 0.00 | 96 | 1020.2 |
| 20260507102428 | 51 | 301 | 0.0 | 2.0 | 0.00 | 0.00 | 0.00 | 96 | 1020.3 |
| 20260507101422 | 52 | 302 | 0.0 | 3.0 | 0.00 | 0.00 | 0.00 | 96 | 1020.3 |
| 20260507100421 | 52 | 275 | 1.0 | 4.0 | 0.00 | 0.00 | 0.00 | 96 | 1020.3 |
| 20260507095413 | 52 | 295 | 0.0 | 3.0 | 0.00 | 0.00 | 0.00 | 96 | 1020.3 |
| 20260507094447 | 52 | 279 | 0.0 | 5.0 | 0.00 | 0.00 | 0.00 | 96 | 1020.4 |
| 20260507093440 | 52 | 241 | 0.0 | 2.0 | 0.00 | 0.00 | 0.00 | 96 | 1020.3 |
| 20260507092416 | 52 | 309 | 0.0 | 1.0 | 0.00 | 0.00 | 0.00 | 96 | 1020.3 |
| 20260507091428 | 52 | 315 | 2.0 | 4.0 | 0.00 | 0.00 | 0.00 | 96 | 1020.4 |
| 20260507090441 | 52 | 299 | 0.0 | 4.0 | 0.00 | 0.00 | 0.00 | 95 | 1020.5 |
| 20260507085451 | 52 | 285 | 0.0 | 2.0 | 0.00 | 0.00 | 0.00 | 96 | 1020.4 |
| 20260507084427 | 52 | 285 | 0.0 | 1.0 | 0.00 | 0.00 | 0.00 | 96 | 1020.5 |
| 20260507083420 | 52 | 284 | 0.0 | 5.0 | 0.00 | 0.00 | 0.00 | 96 | 1020.5 |
| 20260507082454 | 52 | 317 | 1.0 | 4.0 | 0.00 | 0.00 | 0.00 | 96 | 1020.4 |
| 20260507081427 | 52 | 272 | 0.0 | 1.0 | 0.00 | 0.00 | 0.00 | 96 | 1020.5 |
| 20260507080446 | 52 | 118 | 1.0 | 3.0 | 0.00 | 0.00 | 0.00 | 96 | 1020.6 |
| 20260507075437 | 52 | 265 | 0.0 | 2.0 | 0.00 | 0.00 | 0.00 | 96 | 1020.5 |
| 20260507074430 | 52 | 322 | 0.0 | 4.0 | 0.00 | 0.00 | 0.00 | 96 | 1020.5 |
| 20260507073424 | 52 | 293 | 0.0 | 6.0 | 0.00 | 0.00 | 0.00 | 96 | 1020.6 |
| 20260507072422 | 52 | 289 | 0.0 | 4.0 | 0.00 | 0.00 | 0.00 | 96 | 1020.6 |
| 20260507071453 | 52 | 287 | 0.0 | 3.0 | 0.00 | 0.00 | 0.00 | 96 | 1020.4 |
| 20260507070424 | 52 | 287 | 0.0 | 4.0 | 0.00 | 0.00 | 0.00 | 96 | 1020.5 |
| 20260507065422 | 52 | 299 | 1.0 | 5.0 | 0.00 | 0.00 | 0.00 | 95 | 1020.4 |
| 20260507064416 | 52 | 311 | 0.0 | 4.0 | 0.00 | 0.00 | 0.00 | 95 | 1020.4 |
| 20260507063430 | 52 | 293 | 1.0 | 4.0 | 0.00 | 0.00 | 0.00 | 95 | 1020.5 |
| 20260507062425 | 52 | 312 | 2.0 | 6.0 | 0.00 | 0.00 | 0.00 | 95 | 1020.4 |
| 20260507061423 | 52 | 277 | 0.0 | 3.0 | 0.00 | 0.00 | 0.00 | 95 | 1020.4 |
| 20260507060418 | 52 | 300 | 0.0 | 5.0 | 0.00 | 0.00 | 0.00 | 95 | 1020.4 |
| 20260507055430 | 52 | 289 | 0.0 | 3.0 | 0.00 | 0.00 | 0.00 | 96 | 1020.3 |
| 20260507054428 | 52 | 326 | 1.0 | 3.0 | 0.00 | 0.00 | 0.00 | 96 | 1020.2 |
| 20260507053424 | 52 | 309 | 1.0 | 4.0 | 0.00 | 0.00 | 0.00 | 95 | 1020.2 |
| 20260507052417 | 52 | 298 | 0.0 | 3.0 | 0.00 | 0.00 | 0.00 | 95 | 1020.2 |
| 20260507051432 | 52 | 279 | 0.0 | 5.0 | 0.00 | 0.00 | 0.00 | 95 | 1020.3 |
| 20260507050429 | 52 | 272 | 1.0 | 7.0 | 0.00 | 0.00 | 0.00 | 95 | 1020.2 |
| 20260507045422 | 52 | 263 | 3.0 | 7.0 | 0.00 | 0.00 | 0.00 | 95 | 1020.3 |
| 20260507044415 | 52 | 275 | 3.0 | 7.0 | 0.00 | 0.00 | 0.00 | 95 | 1020.2 |